timestamp,surface_pressure_avg,surface_temp_avg,battery_voltage,lat,long
2019-12-17 00:09:01+00:00,266.9964,3.7,12.57,47.84626,-54.09684
2019-12-17 00:19:01+00:00,277.2564,3.75,12.57,47.84626,-54.09684
2019-12-17 00:29:01+00:00,284.0497,3.78,12.57,47.84626,-54.09684
2019-12-17 00:39:01+00:00,283.5814,3.78,12.57,47.84626,-54.09684
2019-12-17 00:49:01+00:00,290.703,3.6,12.57,47.84626,-54.09684
2019-12-17 00:59:01+00:00,297.918,3.45,12.57,47.84626,-54.09684
2019-12-17 01:09:01+00:00,301.6946,3.64,12.57,47.84626,-54.09684
2019-12-17 01:19:01+00:00,303.8314,3.7,12.57,47.84626,-54.09684
2019-12-17 01:29:01+00:00,312.7046,3.6,12.57,47.84626,-54.09684
2019-12-17 01:39:01+00:00,318.173,3.6,12.57,47.84626,-54.09684
2019-12-17 01:49:01+00:00,319.653,3.4,12.57,47.84626,-54.09684
2019-12-17 01:59:01+00:00,328.0997,3.39,12.57,47.84626,-54.09684
2019-12-17 02:09:01+00:00,336.5413,3.4,12.57,47.84626,-54.09684
2019-12-17 02:19:01+00:00,336.6429,3.3,12.57,47.84626,-54.09684
2019-12-17 02:29:01+00:00,338.208,3.49,12.57,47.84626,-54.09684
2019-12-17 02:39:01+00:00,342.64300000000014,3.3,12.57,47.84626,-54.09684
2019-12-17 02:49:01+00:00,345.338,3.4,12.57,47.84626,-54.09684
2019-12-17 02:59:01+00:00,343.168,3.57,12.57,47.84626,-54.09684
2019-12-17 03:09:01+00:00,345.38800000000015,3.78,12.57,47.84626,-54.09684
2019-12-17 03:19:01+00:00,347.73800000000006,3.7,12.57,47.84626,-54.09684
2019-12-17 03:29:01+00:00,347.3746,3.58,12.57,47.84626,-54.09684
2019-12-17 03:39:01+00:00,344.173,3.6,12.57,47.84626,-54.09684
2019-12-17 03:49:01+00:00,343.048,3.6,12.57,47.84626,-54.09684
2019-12-17 03:59:01+00:00,340.3046,3.6,12.57,47.84626,-54.09684
2019-12-17 04:09:01+00:00,335.8313,3.6,12.57,47.84626,-54.09684
2019-12-17 04:19:01+00:00,335.5063,3.6,12.57,47.84626,-54.09684
2019-12-17 04:29:01+00:00,329.0096,3.5,12.57,47.84626,-54.09684
2019-12-17 04:39:01+00:00,321.9446,3.6,12.57,47.84626,-54.09684
2019-12-17 04:49:01+00:00,323.6912,3.6,12.57,47.84626,-54.09684
2019-12-17 04:59:01+00:00,317.943,3.51,12.57,47.84626,-54.09684
2019-12-17 05:09:01+00:00,306.4097,3.28,12.57,47.84626,-54.09684
2019-12-17 05:19:01+00:00,301.3196,3.32,12.57,47.84626,-54.09684
2019-12-17 05:29:01+00:00,303.513,3.4,12.57,47.84626,-54.09684
2019-12-17 05:39:01+00:00,297.1697,3.38,12.57,47.84626,-54.09684
2019-12-17 05:49:01+00:00,288.6597,3.2,12.57,47.84626,-54.09684
2019-12-17 05:59:01+00:00,286.3297,3.2,12.57,47.84626,-54.09684
2019-12-17 06:09:01+00:00,281.428,3.1,12.57,47.84626,-54.09684
2019-12-17 06:19:01+00:00,275.6397,3.0,12.57,47.84626,-54.09684
2019-12-17 06:29:01+00:00,277.7331,2.91,12.57,47.84626,-54.09684
2019-12-17 06:39:01+00:00,274.7465,3.05,12.57,47.84626,-54.09684
2019-12-17 06:49:01+00:00,263.4131,3.04,12.57,47.84626,-54.09684
2019-12-17 06:59:01+00:00,255.0614,3.06,12.57,47.84626,-54.09684
2019-12-17 07:09:01+00:00,252.7731,2.99,12.57,47.84626,-54.09684
2019-12-17 07:19:01+00:00,239.3248,3.0,12.57,47.84626,-54.09684
2019-12-17 07:29:01+00:00,231.6381,3.1,12.57,47.84626,-54.09684
2019-12-17 07:39:01+00:00,233.7281,3.2,12.57,47.84626,-54.09684
2019-12-17 07:49:01+00:00,228.8698,3.25,12.57,47.84626,-54.09684
2019-12-17 07:59:01+00:00,216.1381,3.27,12.57,47.84626,-54.09684
2019-12-17 08:09:01+00:00,212.0114,3.2,12.57,47.84626,-54.09684
2019-12-17 08:19:01+00:00,213.7115,3.2,12.49,47.84626,-54.09684
2019-12-17 08:29:01+00:00,209.9964,3.2,12.49,47.84626,-54.09684
2019-12-17 08:39:01+00:00,203.3114,3.2,12.49,47.84626,-54.09684
2019-12-17 08:49:01+00:00,197.6865,3.2,12.49,47.84626,-54.09684
2019-12-17 08:59:01+00:00,196.1565,3.2,12.49,47.84626,-54.09684
2019-12-17 09:09:01+00:00,196.0814,3.29,12.49,47.84626,-54.09684
2019-12-17 09:19:01+00:00,197.2748,3.3,12.57,47.84626,-54.09684
2019-12-17 09:29:01+00:00,201.4615,3.29,12.57,47.84626,-54.09684
2019-12-17 09:39:01+00:00,205.4381,3.29,12.57,47.84626,-54.09684
2019-12-17 09:49:01+00:00,207.6964,3.3,12.57,47.84626,-54.09684
2019-12-17 09:59:01+00:00,209.6881,3.4,12.57,47.84626,-54.09684
2019-12-17 10:09:01+00:00,216.1182,3.36,12.57,47.84626,-54.09684
2019-12-17 10:19:01+00:00,217.2848,3.35,12.57,47.84626,-54.09684
2019-12-17 10:29:01+00:00,219.9531,3.4,12.57,47.84626,-54.09684
2019-12-17 10:39:01+00:00,230.2498,3.39,12.57,47.84626,-54.09684
2019-12-17 10:49:01+00:00,231.0697,3.3,12.57,47.84626,-54.09684
2019-12-17 10:59:01+00:00,228.7247,3.29,12.57,47.84626,-54.09684
2019-12-17 11:09:01+00:00,240.6164,3.2,12.57,47.84626,-54.09684
2019-12-17 11:19:01+00:00,248.3831,3.18,12.57,47.84626,-54.09684
2019-12-17 11:29:01+00:00,249.0448,3.3,12.57,47.84626,-54.09684
2019-12-17 11:39:01+00:00,251.1364,3.28,12.57,47.84626,-54.09684
2019-12-17 11:49:01+00:00,260.8965,3.2,12.57,47.84626,-54.09684
2019-12-17 11:59:01+00:00,268.3848,3.18,12.57,47.84626,-54.09684
2019-12-17 12:09:01+00:00,270.1031,3.0,12.57,47.84626,-54.09684
2019-12-17 12:19:01+00:00,275.1981,3.0,12.49,47.84626,-54.09684
2019-12-17 12:29:01+00:00,288.0514,3.3,12.49,47.84626,-54.09684
2019-12-17 12:39:01+00:00,294.3614,3.3,12.49,47.84626,-54.09684
2019-12-17 12:49:01+00:00,295.9446,3.3,12.49,47.84626,-54.09684
2019-12-17 12:59:01+00:00,305.0363,3.65,12.49,47.84626,-54.09684
2019-12-17 13:09:01+00:00,316.9564,3.69,12.49,47.84626,-54.09684
2019-12-17 13:19:01+00:00,319.218,3.68,12.57,47.84626,-54.09684
2019-12-17 13:29:01+00:00,327.8646,3.7,12.57,47.84626,-54.09684
2019-12-17 13:39:01+00:00,343.4996,3.7,12.57,47.84626,-54.09684
2019-12-17 13:49:01+00:00,349.74300000000005,3.7,12.57,47.84626,-54.09684
2019-12-17 13:59:01+00:00,351.7463,3.8,12.57,47.84626,-54.09684
2019-12-17 14:09:01+00:00,361.823,3.78,12.57,47.84626,-54.09684
2019-12-17 14:19:01+00:00,368.4446,3.73,12.65,47.84626,-54.09684
2019-12-17 14:29:01+00:00,367.9896,3.95,12.65,47.84626,-54.09684
2019-12-17 14:39:01+00:00,370.4462,4.2,12.65,47.84626,-54.09684
2019-12-17 14:49:01+00:00,374.5529,4.14,12.65,47.84626,-54.09684
2019-12-17 14:59:01+00:00,377.4196,4.1,12.65,47.84626,-54.09684
2019-12-17 15:09:01+00:00,379.9664,4.1,12.65,47.84626,-54.09684
2019-12-17 15:19:01+00:00,383.5812,4.0,13.68,47.84626,-54.09684
2019-12-17 15:29:01+00:00,388.6696,3.91,13.68,47.84626,-54.09684
2019-12-17 15:39:01+00:00,387.0178,3.95,13.68,47.84626,-54.09684
2019-12-17 15:49:01+00:00,380.2163,4.15,13.68,47.84626,-54.09684
2019-12-17 15:59:01+00:00,380.6096,4.44,13.68,47.84626,-54.09684
2019-12-17 16:09:01+00:00,376.0162,4.5,13.68,47.84626,-54.09684
2019-12-17 16:19:01+00:00,368.8062,4.06,14.24,47.84626,-54.09684
2019-12-17 16:29:01+00:00,366.2763,3.9,14.24,47.84626,-54.09684
2019-12-17 16:39:01+00:00,363.1346,3.9,14.24,47.84626,-54.09684
2019-12-17 16:49:01+00:00,358.8929,4.06,14.24,47.84626,-54.09684
2019-12-17 16:59:01+00:00,352.0646,4.15,14.24,47.84626,-54.09684
2019-12-17 17:09:01+00:00,345.8079,4.0,14.24,47.84626,-54.09684
2019-12-17 17:19:01+00:00,342.1313,3.99,14.48,47.84626,-54.09684
2019-12-17 17:29:01+00:00,337.6013,4.07,14.48,47.84626,-54.09684
2019-12-17 17:39:01+00:00,331.2213,4.1,14.48,47.84626,-54.09684
2019-12-17 17:49:01+00:00,327.343,4.05,14.48,47.84626,-54.09684
2019-12-17 17:59:01+00:00,320.1063,4.0,14.48,47.84626,-54.09684
2019-12-17 18:09:01+00:00,309.6813,4.04,14.48,47.84626,-54.09684
2019-12-17 18:19:01+00:00,300.038,4.1,14.32,47.84626,-54.09684
2019-12-17 18:29:01+00:00,293.6447,4.1,14.32,47.84626,-54.09684
2019-12-17 18:39:01+00:00,289.4313,4.0,14.32,47.84626,-54.09684
2019-12-17 18:49:01+00:00,280.0964,3.9,14.32,47.84626,-54.09684
2019-12-17 18:59:01+00:00,269.9565,3.8,14.32,47.84626,-54.09684
2019-12-17 19:09:01+00:00,265.4781,3.8,14.32,47.84626,-54.09684
2019-12-17 19:19:01+00:00,260.2247,3.82,13.84,47.84626,-54.09684
2019-12-17 19:29:01+00:00,247.7931,3.9,13.84,47.84626,-54.09684
2019-12-17 19:39:01+00:00,240.8448,3.98,13.84,47.84626,-54.09684
2019-12-17 19:49:01+00:00,238.9514,4.05,13.84,47.84626,-54.09684
2019-12-17 19:59:01+00:00,232.0397,4.1,13.84,47.84626,-54.09684
2019-12-17 20:09:01+00:00,224.7564,4.0,13.84,47.84626,-54.09684
2019-12-17 20:19:01+00:00,222.5414,4.0,13.21,47.84626,-54.09684
2019-12-17 20:29:01+00:00,221.3748,4.0,13.21,47.84626,-54.09684
2019-12-17 20:39:01+00:00,215.1681,4.02,13.21,47.84626,-54.09684
2019-12-17 20:49:01+00:00,206.9681,4.1,13.21,47.84626,-54.09684
2019-12-17 20:59:01+00:00,207.9264,4.1,13.21,47.84626,-54.09684
2019-12-17 21:09:01+00:00,208.3981,4.09,13.21,47.84626,-54.09684
2019-12-17 21:19:01+00:00,203.8731,4.1,12.89,47.84626,-54.09684
2019-12-17 21:29:01+00:00,205.3181,4.1,12.89,47.84626,-54.09684
2019-12-17 21:39:01+00:00,208.7831,4.09,12.89,47.84626,-54.09684
2019-12-17 21:49:01+00:00,213.8231,4.02,12.89,47.84626,-54.09684
2019-12-17 21:59:01+00:00,218.1731,4.1,12.89,47.84626,-54.09684
2019-12-17 22:09:01+00:00,220.6431,4.2,12.89,47.84626,-54.09684
2019-12-17 22:19:01+00:00,224.0298,4.2,12.81,47.84626,-54.09684
2019-12-17 22:29:01+00:00,228.8648,4.1,12.81,47.84626,-54.09684
2019-12-17 22:39:01+00:00,237.1214,3.9,12.81,47.84626,-54.09684
2019-12-17 22:49:01+00:00,240.5031,3.6,12.81,47.84626,-54.09684
2019-12-17 22:59:01+00:00,240.5247,3.5,12.81,47.84626,-54.09684
2019-12-17 23:09:01+00:00,237.2931,3.51,12.81,47.84626,-54.09684
2019-12-17 23:19:01+00:00,235.1681,3.6,12.81,47.84626,-54.09684
2019-12-17 23:29:01+00:00,234.3164,3.4,12.81,47.84626,-54.09684
2019-12-17 23:39:01+00:00,235.9364,3.54,12.81,47.84626,-54.09684
2019-12-17 23:49:01+00:00,239.2381,3.85,12.81,47.84626,-54.09684
2019-12-17 23:59:01+00:00,245.2198,4.1,12.81,47.84626,-54.09684
